Station Historical Data
Daily Summary for June 29, 2017 Units:  English    Metric   Both
« Previous Day
Next Day »
Daily Weekly Monthly Yearly Custom
  High: Low: Average:
Temperature: 83.3 °F 64.0 °F 72.8 °F
Dew Point: 58.2 °F 45.6 °F 52.3 °F
Humidity: 57 % 36 % 49 %
Wind Speed: 12.0 mph 0.0 mph 1.8 mph
Wind Gust: 14.0 mph - -
Wind:- - South
Pressure: 29.93 in 29.86 in -
Precipitation: 0.00 in    
Historical Graphs
 
 
Tabular Data for June 29, 2017
Time Temperature Dew Point Pressure Wind Wind Speed Wind Gust Humidity Rainfall Rate (Hourly) solar
00:02 68.0 °F 51.7 °F 29.87 in Calm   5.0 mph 56 % 0.00 in 0.00 W/m2
00:07 68.0 °F 51.7 °F 29.86 in Calm   1.0 mph 56 % 0.00 in 0.00 W/m2
00:12 68.0 °F 51.7 °F 29.87 in Calm   7.0 mph 56 % 0.00 in 0.00 W/m2
00:17 68.0 °F 51.2 °F 29.87 in Calm     55 % 0.00 in 0.00 W/m2
00:22 68.0 °F 51.7 °F 29.86 in East 2.0 mph 7.0 mph 56 % 0.00 in 0.00 W/m2
00:27 68.0 °F 51.2 °F 29.86 in Calm   6.0 mph 55 % 0.00 in 0.00 W/m2
00:32 67.9 °F 51.6 °F 29.86 in East 5.0 mph 6.0 mph 56 % 0.00 in 0.00 W/m2
00:37 67.9 °F 51.6 °F 29.86 in East 5.0 mph 8.0 mph 56 % 0.00 in 0.00 W/m2
00:42 67.9 °F 51.2 °F 29.86 in Calm   8.0 mph 55 % 0.00 in 0.00 W/m2
00:47 67.7 °F 51.0 °F 29.86 in Calm   8.0 mph 55 % 0.00 in 0.00 W/m2
00:52 67.6 °F 50.9 °F 29.86 in East 1.0 mph 8.0 mph 55 % 0.00 in 0.00 W/m2
00:57 67.5 °F 50.8 °F 29.86 in Calm   7.0 mph 55 % 0.00 in 0.00 W/m2
01:02 67.5 °F 50.8 °F 29.86 in East 6.0 mph 7.0 mph 55 % 0.00 in 0.00 W/m2
01:07 67.4 °F 50.7 °F 29.86 in East 6.0 mph 7.0 mph 55 % 0.00 in 0.00 W/m2
01:12 67.2 °F 51.0 °F 29.86 in Calm   6.0 mph 56 % 0.00 in 0.00 W/m2
01:17 67.1 °F 50.9 °F 29.87 in Calm   5.0 mph 56 % 0.00 in 0.00 W/m2
01:22 67.1 °F 50.9 °F 29.87 in Calm   6.0 mph 56 % 0.00 in 0.00 W/m2
01:27 67.0 °F 50.8 °F 29.87 in Calm   1.0 mph 56 % 0.00 in 0.00 W/m2
01:32 66.8 °F 50.6 °F 29.87 in Calm   11.0 mph 56 % 0.00 in 0.00 W/m2
01:37 66.7 °F 50.5 °F 29.87 in East 7.0 mph 10.0 mph 56 % 0.00 in 0.00 W/m2
01:42 66.6 °F 50.9 °F 29.86 in East 1.0 mph 11.0 mph 57 % 0.00 in 0.00 W/m2
01:47 66.5 °F 50.8 °F 29.87 in Calm   8.0 mph 57 % 0.00 in 0.00 W/m2
01:52 66.3 °F 50.6 °F 29.87 in East 8.0 mph 9.0 mph 57 % 0.00 in 0.00 W/m2
01:57 66.2 °F 50.5 °F 29.86 in East 5.0 mph 12.0 mph 57 % 0.00 in 0.00 W/m2
02:02 66.2 °F 50.1 °F 29.86 in East 6.0 mph 8.0 mph 56 % 0.00 in 0.00 W/m2
02:07 66.1 °F 50.4 °F 29.86 in Calm   8.0 mph 57 % 0.00 in 0.00 W/m2
02:13 66.1 °F 50.4 °F 29.87 in East 6.0 mph 12.0 mph 57 % 0.00 in 0.00 W/m2
02:15 66.0 °F 50.3 °F 29.87 in Calm   12.0 mph 57 % 0.00 in 0.00 W/m2
02:20 66.0 °F 49.9 °F 29.87 in East 7.0 mph 11.0 mph 56 % 0.00 in 0.00 W/m2
02:25 66.0 °F 49.9 °F 29.87 in East 1.0 mph 13.0 mph 56 % 0.00 in 0.00 W/m2
02:30 65.9 °F 49.8 °F 29.87 in East 7.0 mph 9.0 mph 56 % 0.00 in 0.00 W/m2
02:35 66.0 °F 49.9 °F 29.87 in East 8.0 mph 8.0 mph 56 % 0.00 in 0.00 W/m2
02:40 66.0 °F 49.9 °F 29.87 in Calm   8.0 mph 56 % 0.00 in 0.00 W/m2
02:45 66.0 °F 49.9 °F 29.87 in East 6.0 mph 9.0 mph 56 % 0.00 in 0.00 W/m2
02:50 65.9 °F 49.3 °F 29.87 in East 4.0 mph 8.0 mph 55 % 0.00 in 0.00 W/m2
02:55 65.9 °F 49.3 °F 29.86 in East 2.0 mph 9.0 mph 55 % 0.00 in 0.00 W/m2
03:00 65.9 °F 49.8 °F 29.87 in East 2.0 mph 7.0 mph 56 % 0.00 in 0.00 W/m2
03:05 65.9 °F 49.3 °F 29.86 in Calm   9.0 mph 55 % 0.00 in 0.00 W/m2
03:10 65.8 °F 49.2 °F 29.86 in Calm   8.0 mph 55 % 0.00 in 0.00 W/m2
03:15 65.8 °F 49.2 °F 29.86 in East 6.0 mph 8.0 mph 55 % 0.00 in 0.00 W/m2
03:20 65.8 °F 49.2 °F 29.86 in East 7.0 mph 9.0 mph 55 % 0.00 in 0.00 W/m2
03:25 65.7 °F 49.1 °F 29.86 in Calm   9.0 mph 55 % 0.00 in 0.00 W/m2
03:30 65.7 °F 49.1 °F 29.86 in East 8.0 mph 9.0 mph 55 % 0.00 in 0.00 W/m2
03:35 65.6 °F 49.0 °F 29.86 in Calm   9.0 mph 55 % 0.00 in 0.00 W/m2
03:40 65.5 °F 48.9 °F 29.86 in ESE 7.0 mph 11.0 mph 55 % 0.00 in 0.00 W/m2
03:45 65.4 °F 48.8 °F 29.86 in Calm   12.0 mph 55 % 0.00 in 0.00 W/m2
03:50 65.4 °F 48.8 °F 29.86 in Calm   8.0 mph 55 % 0.00 in 0.00 W/m2
03:55 65.3 °F 48.2 °F 29.86 in ESE 1.0 mph 9.0 mph 54 % 0.00 in 0.00 W/m2
04:00 65.2 °F 48.2 °F 29.86 in ESE 5.0 mph 7.0 mph 54 % 0.00 in 0.00 W/m2
04:05 65.2 °F 48.2 °F 29.86 in Calm   9.0 mph 54 % 0.00 in 0.00 W/m2
04:10 65.1 °F 48.1 °F 29.86 in ESE 4.0 mph 9.0 mph 54 % 0.00 in 0.00 W/m2
04:15 65.0 °F 48.0 °F 29.86 in ESE 4.0 mph 7.0 mph 54 % 0.00 in 0.00 W/m2
04:20 65.0 °F 48.0 °F 29.86 in ESE 7.0 mph 8.0 mph 54 % 0.00 in 0.00 W/m2
04:25 64.9 °F 47.9 °F 29.86 in Calm   7.0 mph 54 % 0.00 in 0.00 W/m2
04:26 64.9 °F 47.9 °F 29.86 in Calm     54 % 0.00 in 0.00 W/m2
04:31 64.8 °F 47.8 °F 29.86 in East 2.0 mph 2.0 mph 54 % 0.00 in 0.00 W/m2
04:36 64.7 °F 47.7 °F 29.86 in Calm     54 % 0.00 in 0.00 W/m2
04:41 64.6 °F 47.6 °F 29.86 in Calm   1.0 mph 54 % 0.00 in 0.00 W/m2
04:46 64.5 °F 47.0 °F 29.86 in Calm     53 % 0.00 in 0.00 W/m2
04:51 64.5 °F 47.5 °F 29.87 in East 1.0 mph 5.0 mph 54 % 0.00 in 0.00 W/m2
04:56 64.4 °F 46.9 °F 29.87 in East 1.0 mph 5.0 mph 53 % 0.00 in 0.00 W/m2
05:01 64.3 °F 46.8 °F 29.87 in East 2.0 mph 7.0 mph 53 % 0.00 in 0.00 W/m2
05:06 64.2 °F 46.7 °F 29.87 in ESE 8.0 mph 9.0 mph 53 % 0.00 in 0.00 W/m2
05:11 64.2 °F 46.7 °F 29.87 in East 5.0 mph 8.0 mph 53 % 0.00 in 0.00 W/m2
05:16 64.1 °F 46.6 °F 29.87 in ESE 5.0 mph 5.0 mph 53 % 0.00 in 0.00 W/m2
05:21 64.1 °F 46.6 °F 29.87 in ESE 8.0 mph 8.0 mph 53 % 0.00 in 0.00 W/m2
05:26 64.0 °F 46.0 °F 29.87 in Calm   7.0 mph 52 % 0.00 in 0.00 W/m2
05:31 64.0 °F 46.0 °F 29.87 in East 6.0 mph 7.0 mph 52 % 0.00 in 0.00 W/m2
05:36 64.0 °F 46.0 °F 29.87 in ESE 6.0 mph 12.0 mph 52 % 0.00 in 0.00 W/m2
05:41 64.1 °F 46.1 °F 29.87 in East 8.0 mph 12.0 mph 52 % 0.00 in 5.00 W/m2
05:46 64.1 °F 45.6 °F 29.87 in East 2.0 mph 13.0 mph 51 % 0.00 in 7.00 W/m2
05:51 64.1 °F 46.1 °F 29.87 in East 8.0 mph 12.0 mph 52 % 0.00 in 11.00 W/m2
05:56 64.1 °F 45.6 °F 29.87 in East 8.0 mph 8.0 mph 51 % 0.00 in 12.00 W/m2
06:01 64.1 °F 45.6 °F 29.87 in East 8.0 mph 11.0 mph 51 % 0.00 in 14.00 W/m2
06:06 64.2 °F 45.7 °F 29.87 in East 7.0 mph 9.0 mph 51 % 0.00 in 16.00 W/m2
06:11 64.2 °F 45.7 °F 29.87 in ESE 5.0 mph 8.0 mph 51 % 0.00 in 18.00 W/m2
06:16 64.2 °F 45.7 °F 29.87 in ESE 1.0 mph 14.0 mph 51 % 0.00 in 21.00 W/m2
06:21 64.2 °F 45.7 °F 29.87 in East 8.0 mph 8.0 mph 51 % 0.00 in 39.00 W/m2
06:26 64.1 °F 46.1 °F 29.87 in East 8.0 mph 11.0 mph 52 % 0.00 in 49.00 W/m2
06:31 64.1 °F 46.1 °F 29.87 in East 6.0 mph 8.0 mph 52 % 0.00 in 65.00 W/m2
06:36 64.1 °F 46.1 °F 29.87 in East 5.0 mph 9.0 mph 52 % 0.00 in 79.00 W/m2
06:42 64.0 °F 46.0 °F 29.88 in East 6.0 mph 12.0 mph 52 % 0.00 in 95.00 W/m2
06:47 64.0 °F 46.0 °F 29.88 in ESE 4.0 mph 12.0 mph 52 % 0.00 in 109.00 W/m2
06:52 64.0 °F 46.0 °F 29.88 in East 5.0 mph 12.0 mph 52 % 0.00 in 125.00 W/m2
06:57 64.1 °F 46.6 °F 29.88 in ESE 5.0 mph 12.0 mph 53 % 0.00 in 148.00 W/m2
07:02 64.1 °F 46.6 °F 29.88 in East 12.0 mph 12.0 mph 53 % 0.00 in 158.00 W/m2
07:07 64.1 °F 46.6 °F 29.88 in East 6.0 mph 9.0 mph 53 % 0.00 in 181.00 W/m2
07:12 64.1 °F 46.6 °F 29.88 in Calm   7.0 mph 53 % 0.00 in 199.00 W/m2
07:17 64.2 °F 47.2 °F 29.88 in ESE 9.0 mph 11.0 mph 54 % 0.00 in 223.00 W/m2
07:22 64.2 °F 47.2 °F 29.88 in Calm   8.0 mph 54 % 0.00 in 246.00 W/m2
07:27 64.3 °F 47.3 °F 29.89 in ESE 6.0 mph 8.0 mph 54 % 0.00 in 264.00 W/m2
07:32 64.4 °F 47.4 °F 29.89 in East 1.0 mph 6.0 mph 54 % 0.00 in 279.00 W/m2
07:37 64.4 °F 47.9 °F 29.89 in ESE 4.0 mph 7.0 mph 55 % 0.00 in 295.00 W/m2
07:42 64.5 °F 47.5 °F 29.89 in ESE 1.0 mph 6.0 mph 54 % 0.00 in 311.00 W/m2
07:47 64.6 °F 47.6 °F 29.90 in Calm   6.0 mph 54 % 0.00 in 330.00 W/m2
07:52 64.7 °F 47.7 °F 29.90 in Calm   9.0 mph 54 % 0.00 in 345.00 W/m2
07:57 64.8 °F 47.3 °F 29.90 in Calm   7.0 mph 53 % 0.00 in 359.00 W/m2
08:02 64.9 °F 47.4 °F 29.90 in East 2.0 mph 14.0 mph 53 % 0.00 in 376.00 W/m2
08:07 65.2 °F 48.2 °F 29.90 in Calm   9.0 mph 54 % 0.00 in 392.00 W/m2
08:12 65.4 °F 48.8 °F 29.90 in Calm   7.0 mph 55 % 0.00 in 408.00 W/m2
08:17 65.6 °F 49.0 °F 29.90 in Calm   5.0 mph 55 % 0.00 in 425.00 W/m2
08:22 65.8 °F 49.2 °F 29.90 in Calm   8.0 mph 55 % 0.00 in 441.00 W/m2
08:27 66.0 °F 49.4 °F 29.90 in East 5.0 mph 7.0 mph 55 % 0.00 in 457.00 W/m2
08:32 66.2 °F 50.1 °F 29.91 in East 9.0 mph 9.0 mph 56 % 0.00 in 473.00 W/m2
08:37 66.3 °F 49.7 °F 29.91 in East 2.0 mph 2.0 mph 55 % 0.00 in 489.00 W/m2
08:42 66.6 °F 50.4 °F 29.91 in East 6.0 mph 7.0 mph 56 % 0.00 in 504.00 W/m2
08:47 66.9 °F 50.7 °F 29.91 in East 6.0 mph 11.0 mph 56 % 0.00 in 520.00 W/m2
08:52 67.2 °F 50.5 °F 29.91 in Calm   5.0 mph 55 % 0.00 in 534.00 W/m2
08:57 67.6 °F 50.9 °F 29.91 in Calm   7.0 mph 55 % 0.00 in 550.00 W/m2
09:02 67.8 °F 51.1 °F 29.91 in Calm   6.0 mph 55 % 0.00 in 564.00 W/m2
09:07 68.1 °F 50.8 °F 29.91 in Calm   1.0 mph 54 % 0.00 in 580.00 W/m2
09:12 68.4 °F 50.6 °F 29.91 in Calm     53 % 0.00 in 594.00 W/m2
09:17 68.7 °F 51.4 °F 29.92 in Calm     54 % 0.00 in 610.00 W/m2
09:22 68.9 °F 51.6 °F 29.92 in Calm     54 % 0.00 in 624.00 W/m2
09:27 69.2 °F 52.8 °F 29.92 in Calm     56 % 0.00 in 638.00 W/m2
09:32 69.5 °F 47.8 °F 29.92 in Calm     46 % 0.00 in 652.00 W/m2
09:37 69.8 °F 48.1 °F 29.92 in Calm     46 % 0.00 in 663.00 W/m2
09:39 69.9 °F 48.2 °F 29.92 in Calm     46 % 0.00 in 670.00 W/m2
09:44 70.3 °F 48.0 °F 29.92 in Calm     45 % 0.00 in 684.00 W/m2
09:49 71.0 °F 52.0 °F 29.92 in Calm     51 % 0.00 in 693.00 W/m2
09:54 71.6 °F 53.6 °F 29.92 in Calm     53 % 0.00 in 705.00 W/m2
09:59 72.1 °F 54.0 °F 29.92 in Calm     53 % 0.00 in 719.00 W/m2
10:04 72.6 °F 51.8 °F 29.92 in Calm     48 % 0.00 in 731.00 W/m2
10:09 73.1 °F 55.0 °F 29.92 in Calm     53 % 0.00 in 744.00 W/m2
10:14 73.6 °F 54.9 °F 29.92 in Calm   1.0 mph 52 % 0.00 in 754.00 W/m2
10:19 74.0 °F 55.3 °F 29.92 in Calm     52 % 0.00 in 765.00 W/m2
10:20 74.0 °F 55.3 °F 29.92 in Calm     52 % 0.00 in 765.00 W/m2
10:25 74.4 °F 54.6 °F 29.92 in Calm   4.0 mph 50 % 0.00 in 777.00 W/m2
10:30 74.8 °F 54.9 °F 29.92 in Calm     50 % 0.00 in 788.00 W/m2
10:35 75.1 °F 55.2 °F 29.93 in Calm   1.0 mph 50 % 0.00 in 798.00 W/m2
10:40 75.3 °F 54.3 °F 29.93 in Calm   2.0 mph 48 % 0.00 in 807.00 W/m2
10:45 75.5 °F 54.5 °F 29.93 in Calm   5.0 mph 48 % 0.00 in 817.00 W/m2
10:50 75.7 °F 55.2 °F 29.93 in Calm   2.0 mph 49 % 0.00 in 824.00 W/m2
10:55 76.0 °F 55.5 °F 29.93 in Calm   3.0 mph 49 % 0.00 in 838.00 W/m2
11:00 76.2 °F 55.1 °F 29.93 in Calm   3.0 mph 48 % 0.00 in 847.00 W/m2
11:05 76.5 °F 54.8 °F 29.93 in Calm   4.0 mph 47 % 0.00 in 856.00 W/m2
11:10 76.7 °F 53.8 °F 29.93 in Calm   1.0 mph 45 % 0.00 in 865.00 W/m2
11:15 76.9 °F 54.0 °F 29.93 in NW 3.0 mph 3.0 mph 45 % 0.00 in 872.00 W/m2
11:20 77.1 °F 53.5 °F 29.93 in NW 1.0 mph 2.0 mph 44 % 0.00 in 879.00 W/m2
11:25 77.2 °F 54.8 °F 29.93 in Calm   4.0 mph 46 % 0.00 in 886.00 W/m2
11:30 77.3 °F 54.3 °F 29.93 in WNW 1.0 mph 4.0 mph 45 % 0.00 in 895.00 W/m2
11:35 77.5 °F 53.9 °F 29.93 in Calm   2.0 mph 44 % 0.00 in 900.00 W/m2
11:40 77.8 °F 54.8 °F 29.93 in WSW 3.0 mph 6.0 mph 45 % 0.00 in 907.00 W/m2
11:45 78.0 °F 55.0 °F 29.93 in Calm   6.0 mph 45 % 0.00 in 914.00 W/m2
11:50 78.2 °F 55.1 °F 29.93 in Calm   2.0 mph 45 % 0.00 in 919.00 W/m2
11:55 78.5 °F 55.4 °F 29.93 in Calm   2.0 mph 45 % 0.00 in 925.00 W/m2
12:00 78.8 °F 53.1 °F 29.93 in NW 2.0 mph 4.0 mph 41 % 0.00 in 928.00 W/m2
12:05 79.0 °F 54.0 °F 29.93 in WNW 2.0 mph 6.0 mph 42 % 0.00 in 933.00 W/m2
12:06 79.0 °F 54.0 °F 29.93 in WNW 3.0 mph 3.0 mph 42 % 0.00 in 933.00 W/m2
12:11 79.2 °F 52.8 °F 29.93 in WNW 1.0 mph 1.0 mph 40 % 0.00 in 939.00 W/m2
12:16 79.6 °F 51.8 °F 29.93 in West 3.0 mph 3.0 mph 38 % 0.00 in 942.00 W/m2
12:21 80.0 °F 53.5 °F 29.93 in West 2.0 mph 4.0 mph 40 % 0.00 in 946.00 W/m2
12:26 80.3 °F 50.9 °F 29.93 in Calm     36 % 0.00 in 949.00 W/m2
12:31 80.8 °F 52.1 °F 29.93 in WSW 5.0 mph 5.0 mph 37 % 0.00 in 953.00 W/m2
12:36 81.2 °F 53.2 °F 29.93 in Calm     38 % 0.00 in 954.00 W/m2
12:41 81.4 °F 53.4 °F 29.93 in West 2.0 mph 7.0 mph 38 % 0.00 in 956.00 W/m2
12:46 81.7 °F 52.2 °F 29.92 in Calm     36 % 0.00 in 954.00 W/m2
12:51 82.0 °F 52.4 °F 29.92 in West 7.0 mph 7.0 mph 36 % 0.00 in 956.00 W/m2
12:56 82.0 °F 54.6 °F 29.92 in Calm     39 % 0.00 in 954.00 W/m2
13:01 82.0 °F 56.7 °F 29.92 in WSW 2.0 mph 6.0 mph 42 % 0.00 in 956.00 W/m2
13:06 81.9 °F 56.6 °F 29.92 in SSW 1.0 mph 4.0 mph 42 % 0.00 in 951.00 W/m2
13:11 82.0 °F 58.0 °F 29.92 in Calm     44 % 0.00 in 947.00 W/m2
13:16 82.1 °F 57.4 °F 29.92 in WNW 4.0 mph 4.0 mph 43 % 0.00 in 953.00 W/m2
13:22 82.4 °F 56.4 °F 29.92 in Calm   4.0 mph 41 % 0.00 in 947.00 W/m2
13:28 82.6 °F 56.5 °F 29.92 in WNW 6.0 mph 9.0 mph 41 % 0.00 in 953.00 W/m2
13:53 82.6 °F 57.9 °F 29.91 in NNW 8.0 mph 8.0 mph 43 % 0.00 in 933.00 W/m2
13:58 82.5 °F 56.5 °F 29.91 in Calm   9.0 mph 41 % 0.00 in 930.00 W/m2
14:03 82.5 °F 57.8 °F 29.91 in WSW 6.0 mph 7.0 mph 43 % 0.00 in 928.00 W/m2
14:08 82.5 °F 57.8 °F 29.91 in WSW 7.0 mph 9.0 mph 43 % 0.00 in 886.00 W/m2
14:13 82.8 °F 58.0 °F 29.91 in NW 6.0 mph 8.0 mph 43 % 0.00 in 918.00 W/m2
14:18 83.1 °F 57.0 °F 29.91 in WNW 4.0 mph 7.0 mph 41 % 0.00 in 918.00 W/m2
14:23 83.3 °F 56.5 °F 29.91 in Calm   8.0 mph 40 % 0.00 in 912.00 W/m2
14:28 83.0 °F 56.9 °F 29.91 in Calm   8.0 mph 41 % 0.00 in 905.00 W/m2
14:33 82.7 °F 56.6 °F 29.91 in West 5.0 mph 10.0 mph 41 % 0.00 in 891.00 W/m2
14:38 82.6 °F 56.5 °F 29.91 in Calm   5.0 mph 41 % 0.00 in 886.00 W/m2
14:43 82.5 °F 55.8 °F 29.91 in Calm   7.0 mph 40 % 0.00 in 879.00 W/m2
14:48 82.5 °F 56.5 °F 29.91 in WNW 2.0 mph 6.0 mph 41 % 0.00 in 872.00 W/m2
14:53 82.6 °F 55.9 °F 29.91 in WNW 3.0 mph 9.0 mph 40 % 0.00 in 870.00 W/m2
14:58 82.6 °F 54.5 °F 29.91 in Calm   5.0 mph 38 % 0.00 in 861.00 W/m2
15:03 82.6 °F 55.9 °F 29.91 in Calm   9.0 mph 40 % 0.00 in 853.00 W/m2
15:08 82.6 °F 55.2 °F 29.91 in Calm   6.0 mph 39 % 0.00 in 844.00 W/m2
15:13 82.7 °F 55.2 °F 29.91 in Calm   7.0 mph 39 % 0.00 in 837.00 W/m2
15:18 82.9 °F 56.1 °F 29.91 in WNW 8.0 mph 9.0 mph 40 % 0.00 in 823.00 W/m2
15:23 82.9 °F 55.4 °F 29.91 in Calm   1.0 mph 39 % 0.00 in 812.00 W/m2
15:28 82.8 °F 56.0 °F 29.91 in WNW 7.0 mph 10.0 mph 40 % 0.00 in 800.00 W/m2
15:33 82.9 °F 56.1 °F 29.91 in NNW 7.0 mph 8.0 mph 40 % 0.00 in 788.00 W/m2
15:38 82.9 °F 56.1 °F 29.91 in Calm   7.0 mph 40 % 0.00 in 780.00 W/m2
15:43 82.9 °F 56.1 °F 29.91 in West 7.0 mph 9.0 mph 40 % 0.00 in 765.00 W/m2
15:48 82.9 °F 56.8 °F 29.91 in Calm   7.0 mph 41 % 0.00 in 758.00 W/m2
15:53 82.8 °F 55.3 °F 29.90 in Calm   7.0 mph 39 % 0.00 in 745.00 W/m2
15:58 82.7 °F 55.2 °F 29.91 in West 1.0 mph 6.0 mph 39 % 0.00 in 731.00 W/m2
16:03 82.7 °F 56.0 °F 29.90 in Calm   7.0 mph 40 % 0.00 in 721.00 W/m2
16:08 82.8 °F 56.7 °F 29.90 in Calm   4.0 mph 41 % 0.00 in 708.00 W/m2
16:13 82.7 °F 54.5 °F 29.91 in WNW 3.0 mph 8.0 mph 38 % 0.00 in 698.00 W/m2
16:18 82.7 °F 54.5 °F 29.90 in Calm   5.0 mph 38 % 0.00 in 684.00 W/m2
16:23 82.8 °F 54.6 °F 29.90 in West 4.0 mph 8.0 mph 38 % 0.00 in 673.00 W/m2
16:28 82.9 °F 55.4 °F 29.90 in Calm   6.0 mph 39 % 0.00 in 659.00 W/m2
16:33 82.9 °F 55.4 °F 29.90 in Calm   4.0 mph 39 % 0.00 in 643.00 W/m2
16:38 82.9 °F 54.7 °F 29.91 in Calm   6.0 mph 38 % 0.00 in 633.00 W/m2
16:43 83.0 °F 53.3 °F 29.90 in Calm   8.0 mph 36 % 0.00 in 318.00 W/m2
16:49 82.8 °F 55.3 °F 29.90 in Calm   6.0 mph 39 % 0.00 in 605.00 W/m2
16:54 82.7 °F 55.2 °F 29.90 in Calm   2.0 mph 39 % 0.00 in 589.00 W/m2
16:59 82.6 °F 54.5 °F 29.90 in West 4.0 mph 6.0 mph 38 % 0.00 in 575.00 W/m2
17:04 82.6 °F 55.2 °F 29.90 in Calm   4.0 mph 39 % 0.00 in 559.00 W/m2
17:09 82.5 °F 55.1 °F 29.90 in Calm   5.0 mph 39 % 0.00 in 547.00 W/m2
17:14 82.4 °F 55.7 °F 29.90 in Calm   5.0 mph 40 % 0.00 in 527.00 W/m2
17:19 82.4 °F 54.3 °F 29.90 in West 1.0 mph 8.0 mph 38 % 0.00 in 513.00 W/m2
17:24 82.5 °F 54.4 °F 29.90 in WSW 2.0 mph 6.0 mph 38 % 0.00 in 503.00 W/m2
17:29 82.4 °F 55.0 °F 29.90 in West 5.0 mph 6.0 mph 39 % 0.00 in 487.00 W/m2
17:34 82.5 °F 55.8 °F 29.90 in West 1.0 mph 4.0 mph 40 % 0.00 in 471.00 W/m2
17:44 82.3 °F 54.9 °F 29.90 in WSW 1.0 mph 7.0 mph 39 % 0.00 in 439.00 W/m2
17:49 82.3 °F 55.6 °F 29.90 in WSW 3.0 mph 3.0 mph 40 % 0.00 in 424.00 W/m2
17:54 82.3 °F 54.9 °F 29.90 in West 6.0 mph 7.0 mph 39 % 0.00 in 406.00 W/m2
17:59 82.2 °F 54.1 °F 29.90 in Calm   4.0 mph 38 % 0.00 in 390.00 W/m2
18:00 82.2 °F 54.8 °F 29.90 in Calm   4.0 mph 39 % 0.00 in 387.00 W/m2
18:05 82.1 °F 56.1 °F 29.90 in Calm   4.0 mph 41 % 0.00 in 371.00 W/m2
18:10 82.0 °F 56.0 °F 29.90 in Calm   5.0 mph 41 % 0.00 in 357.00 W/m2
18:15 81.9 °F 56.6 °F 29.90 in Calm   5.0 mph 42 % 0.00 in 341.00 W/m2
18:20 81.8 °F 55.8 °F 29.90 in West 2.0 mph 5.0 mph 41 % 0.00 in 327.00 W/m2
18:25 81.7 °F 55.0 °F 29.90 in West 6.0 mph 7.0 mph 40 % 0.00 in 309.00 W/m2
18:30 81.6 °F 55.6 °F 29.90 in Calm   3.0 mph 41 % 0.00 in 295.00 W/m2
18:35 81.4 °F 54.8 °F 29.90 in Calm   2.0 mph 40 % 0.00 in 279.00 W/m2
18:40 81.2 °F 55.3 °F 29.90 in Calm   5.0 mph 41 % 0.00 in 262.00 W/m2
18:45 81.1 °F 57.2 °F 29.90 in Calm   2.0 mph 44 % 0.00 in 248.00 W/m2
18:50 80.9 °F 57.0 °F 29.90 in Calm   1.0 mph 44 % 0.00 in 230.00 W/m2
18:55 80.7 °F 57.4 °F 29.90 in WNW 1.0 mph 1.0 mph 45 % 0.00 in 218.00 W/m2
19:00 80.4 °F 57.1 °F 29.90 in Calm   1.0 mph 45 % 0.00 in 202.00 W/m2
19:05 80.1 °F 57.5 °F 29.90 in Calm   4.0 mph 46 % 0.00 in 186.00 W/m2
19:10 79.8 °F 57.8 °F 29.90 in Calm     47 % 0.00 in 169.00 W/m2
19:15 79.6 °F 58.2 °F 29.90 in Calm     48 % 0.00 in 151.00 W/m2
19:20 79.4 °F 58.0 °F 29.90 in Calm   2.0 mph 48 % 0.00 in 130.00 W/m2
19:25 79.1 °F 57.8 °F 29.90 in WNW 3.0 mph 4.0 mph 48 % 0.00 in 114.00 W/m2
19:30 78.7 °F 57.4 °F 29.90 in Calm   2.0 mph 48 % 0.00 in 97.00 W/m2
19:35 78.4 °F 57.7 °F 29.90 in Calm   3.0 mph 49 % 0.00 in 77.00 W/m2
19:40 78.0 °F 57.3 °F 29.90 in Calm   1.0 mph 49 % 0.00 in 67.00 W/m2
19:45 77.6 °F 57.0 °F 29.90 in Calm   1.0 mph 49 % 0.00 in 54.00 W/m2
19:50 77.3 °F 57.2 °F 29.90 in Calm   1.0 mph 50 % 0.00 in 42.00 W/m2
19:55 76.9 °F 57.4 °F 29.90 in Calm   1.0 mph 51 % 0.00 in 33.00 W/m2
20:01 76.6 °F 57.1 °F 29.90 in Calm   1.0 mph 51 % 0.00 in 25.00 W/m2
20:06 76.2 °F 56.8 °F 29.90 in Calm   1.0 mph 51 % 0.00 in 19.00 W/m2
20:11 75.7 °F 56.8 °F 29.90 in Calm     52 % 0.00 in 16.00 W/m2
20:16 75.2 °F 56.4 °F 29.90 in Calm   1.0 mph 52 % 0.00 in 14.00 W/m2
20:21 74.8 °F 56.0 °F 29.90 in Calm   1.0 mph 52 % 0.00 in 12.00 W/m2
20:26 74.4 °F 55.7 °F 29.90 in Calm     52 % 0.00 in 9.00 W/m2
20:31 74.1 °F 55.4 °F 29.90 in Calm     52 % 0.00 in 7.00 W/m2
20:36 73.7 °F 55.0 °F 29.90 in Calm     52 % 0.00 in 5.00 W/m2
20:41 73.4 °F 54.7 °F 29.90 in Calm     52 % 0.00 in 0.00 W/m2
20:46 73.1 °F 53.9 °F 29.90 in Calm     51 % 0.00 in 0.00 W/m2
20:51 72.8 °F 53.6 °F 29.91 in Calm     51 % 0.00 in 0.00 W/m2
20:56 72.5 °F 53.4 °F 29.91 in Calm     51 % 0.00 in 0.00 W/m2
21:01 72.3 °F 53.2 °F 29.91 in Calm     51 % 0.00 in 0.00 W/m2
21:06 72.1 °F 53.0 °F 29.91 in Calm     51 % 0.00 in 0.00 W/m2
21:11 71.8 °F 52.7 °F 29.91 in Calm     51 % 0.00 in 0.00 W/m2
21:16 71.7 °F 53.2 °F 29.91 in Calm     52 % 0.00 in 0.00 W/m2
21:21 71.5 °F 52.4 °F 29.91 in Calm     51 % 0.00 in 0.00 W/m2
21:26 71.4 °F 52.3 °F 29.91 in Calm     51 % 0.00 in 0.00 W/m2
21:28 71.3 °F 52.8 °F 29.91 in Calm     52 % 0.00 in 0.00 W/m2
21:33 71.2 °F 52.7 °F 29.91 in Calm     52 % 0.00 in 0.00 W/m2
21:38 71.0 °F 52.5 °F 29.91 in Calm     52 % 0.00 in 0.00 W/m2
21:43 71.0 °F 52.5 °F 29.91 in Calm     52 % 0.00 in 0.00 W/m2
21:48 70.8 °F 52.3 °F 29.91 in Calm     52 % 0.00 in 0.00 W/m2
21:53 70.7 °F 52.2 °F 29.91 in Calm     52 % 0.00 in 0.00 W/m2
21:58 70.7 °F 52.8 °F 29.91 in Calm     53 % 0.00 in 0.00 W/m2
22:03 70.6 °F 52.7 °F 29.91 in Calm     53 % 0.00 in 0.00 W/m2
22:08 70.5 °F 52.6 °F 29.91 in Calm     53 % 0.00 in 0.00 W/m2
22:13 70.5 °F 52.6 °F 29.91 in Calm     53 % 0.00 in 0.00 W/m2
22:18 70.4 °F 53.0 °F 29.91 in Calm     54 % 0.00 in 0.00 W/m2
22:23 70.4 °F 52.5 °F 29.91 in Calm     53 % 0.00 in 0.00 W/m2
22:28 70.3 °F 52.9 °F 29.91 in Calm     54 % 0.00 in 0.00 W/m2
22:33 70.2 °F 52.8 °F 29.91 in Calm     54 % 0.00 in 0.00 W/m2
22:38 70.2 °F 52.3 °F 29.91 in Calm     53 % 0.00 in 0.00 W/m2
22:43 70.1 °F 52.7 °F 29.91 in Calm   1.0 mph 54 % 0.00 in 0.00 W/m2
22:48 70.0 °F 52.6 °F 29.91 in Calm     54 % 0.00 in 0.00 W/m2
22:53 70.0 °F 52.6 °F 29.91 in Calm     54 % 0.00 in 0.00 W/m2
22:58 69.9 °F 52.5 °F 29.91 in Calm   1.0 mph 54 % 0.00 in 0.00 W/m2
23:04 69.8 °F 52.4 °F 29.90 in Calm     54 % 0.00 in 0.00 W/m2
23:09 69.8 °F 52.9 °F 29.90 in Calm     55 % 0.00 in 0.00 W/m2
23:14 69.8 °F 52.9 °F 29.90 in Calm     55 % 0.00 in 0.00 W/m2
23:19 69.8 °F 52.9 °F 29.90 in Calm     55 % 0.00 in 0.00 W/m2
23:24 69.7 °F 52.8 °F 29.90 in Calm     55 % 0.00 in 0.00 W/m2
23:29 69.7 °F 52.8 °F 29.90 in Calm     55 % 0.00 in 0.00 W/m2
23:34 69.7 °F 52.8 °F 29.90 in Calm   1.0 mph 55 % 0.00 in 0.00 W/m2
23:39 69.7 °F 52.8 °F 29.90 in Calm   1.0 mph 55 % 0.00 in 0.00 W/m2
23:44 69.6 °F 52.7 °F 29.90 in Calm   5.0 mph 55 % 0.00 in 0.00 W/m2
23:49 69.6 °F 53.2 °F 29.90 in Calm   2.0 mph 56 % 0.00 in 0.00 W/m2
23:54 69.5 °F 53.1 °F 29.90 in Calm   4.0 mph 56 % 0.00 in 0.00 W/m2
23:59 69.4 °F 53.5 °F 29.90 in Calm   2.0 mph 57 % 0.00 in 0.00 W/m2
Juneau County Weather
Compliments of Weather Underground - 4.5 mb
 WU-history PHP script courtesy of   Juneau County Weather.
powered by Cumulus v1.9.3 (1059)
Ambient Weather VWS v14.00
Top Contact Website Map Copyright © 2007 - 2018 Foresthillweather.com Never base important decisions on this or any weather information obtained from the Internet